Weather Roundup
Issued by NWS Springfield, MO

Home | Current Version | Previous Version | Text Only | Print | Product List | Glossary On
Versions: 1 2 3 4 5 6 7 8 9 10 11 12 13 14 15 16 17 18 19 20 21 22 23 24 25 26 27 28 29 30 31 32 33 34 35 36 37 38 39 40 41 42 43 44 45 46 47 48 49 50
000
NZUS99 KSGF 231807
HRRSGF

HOURLY WEATHER
NATIONAL WEATHER SERVICE SPRINGFIELD MO
100 PM CDT WED APR 23 2014

......SGF CWA......

CITY           SKY/WX    TMP DP  RH WIND       PRES   REMARKS
SPRINGFIELD    FAIR      72  42  34 S18G24    29.95F
6HR MIN TEMP:  51; 6HR MAX TEMP:  72;

JOPLIN         FAIR      76  45  33 S12       29.90F
6HR MIN TEMP:  51; 6HR MAX TEMP:  77;

WEST PLAINS    FAIR      68  35  29 SE10G17   30.03F
6HR MIN TEMP:  47; 6HR MAX TEMP:  68;

ROLLA          PTSUNNY   64  33  31 SE9       30.00F
6HR MIN TEMP:  45; 6HR MAX TEMP:  65;

OSAGE BEACH    FAIR      66  34  30 SE7       30.00F
BRANSON        PTSUNNY   70  41  35 SE13G18   29.99F

......SURROUNDING SGF CWA......

CITY           SKY/WX    TMP DP  RH WIND       PRES   REMARKS
CHANUTE        FAIR      76  46  34 S17G24    29.87F
PARSONS        FAIR      79  46  31 S13G21    29.87F
COFFEYVILLE    FAIR      79  47  32 S18G29    29.86F
EMPORIA        FAIR      74  44  34 S23G33    29.80F
ROGERS AR      FAIR      75  45  34 SE15G21   29.94F
SILOAM SPRINGS FAIR      75  50  41 S18G24    29.94F
HARRISON AR    FAIR      73  42  32 SE8       29.98F
NEAR YELLVILLE FAIR      72  41  33 E8        29.99F

......KANSAS AND MISSOURI......

CITY           SKY/WX    TMP DP  RH WIND       PRES   REMARKS
KANSAS CTY INT FAIR      67  38  34 SE21      29.89F
DOWNTOWN KC    FAIR      69  38  32 SE17G26   29.90F
COLUMBIA       PTSUNNY   62  35  36 SE12      30.03F
SEDALIA        CLOUDY    62  38  40 SE13      29.99F
ST JOSEPH      CLOUDY    59  40  49 SE17G23   29.87F
ST LOUIS       FAIR      63  37  38 SE13G22   30.09F
SPIRIT OF STL  FAIR      61  38  42 E12       30.07F
KIRKSVILLE     LGT RAIN  55  36  48 SE17G23   30.01F
WICHITA        PTSUNNY   81  50  33 S28G36    29.77F
TOPEKA         FAIR      73  41  31 SE21      29.83F
OLATHE         FAIR      67  40  37 SE18G26   29.89F

......TENNESSEE......

CITY           SKY/WX    TMP DP  RH WIND       PRES   REMARKS
MEMPHIS        FAIR      75  39  27 N9        30.01F
NASHVILLE      MOSUNNY   65  36  34 NE7       30.05F

......ARKANSAS.......

CITY           SKY/WX    TMP DP  RH WIND       PRES   REMARKS
FAYETTEVILLE   FAIR      75  50  41 SE9G18    29.94F
FT SMITH       FAIR      79  53  40 SE9       29.92F
LITTLE ROCK    FAIR      74  45  35 E9        30.00F

......OKLAHOMA.......

CITY           SKY/WX    TMP DP  RH WIND       PRES   REMARKS
TULSA          PTSUNNY   78  54  43 S16G23    29.85F
PONCA CITY     FAIR      84  47  27 S15G26    29.80F
MCALESTER      FAIR      80  56  43 SW16G23   29.89F
OKLAHOMA CITY  FAIR      83  56  39 S25G31    29.83F

......IOWA............

CITY           SKY/WX    TMP DP  RH WIND       PRES   REMARKS
DES MOINES     RAIN      47  39  74 SE12G21   30.01S
QUAD CITIES    FAIR      54  29  38 SE15      30.11F

......ILLINOIS........

CITY           SKY/WX    TMP DP  RH WIND       PRES   REMARKS
QUINCY         NOT AVBL
CHICAGO        PTSUNNY   48  24  39 NE6       30.17S



USA.gov is the U.S. government's official web portal to all federal, state and local government web resources and services.